Regional Weather Roundup
Issued by NWS

Home | Current Version | Previous Version | Graphics & Text | Print | Product List | Glossary On
Versions: 1 2 3 4 5 6 7 8 9 10 11 12 13 14 15 16 17 18 19 20 21 22 23 24 25 26 27
000
ASUS45 KSLC 200410
RWRUT

UTAH REGIONAL WEATHER ROUNDUP
NATIONAL WEATHER SERVICE SALT LAKE CITY UT
1000 PM MDT TUE SEP 19 2017

UTZ001>011-023>025-200500-

NORTHERN UTAH

CITY           SKY/WX    TMP DP  RH WIND       PRES   REMARKS
BRIGHAM CITY   CLEAR     49  37  63 S5        29.95S
HILL AFB       CLEAR     49  33  55 E5        29.94R
LOGAN          PTCLDY    43  38  82 SE6       29.97R
OGDEN          CLEAR     50  38  63 NE5       29.93R
SALT LAKE CITY PTCLDY    54  36  50 SW5       29.92R
TOOELE VALLEY  PTCLDY    48  41  76 S6        29.93S
WENDOVER       CLEAR     59  19  21 VRB6      29.92R
HEBER CITY     MOCLDY    43  37  81 CALM      29.96R
WEST JORDAN    PTCLDY    51  42  70 W5        29.94R

$$

UTZ011>015-024>027-200500-

CENTRAL/NORTHEAST UTAH

CITY           SKY/WX    TMP DP  RH WIND       PRES   REMARKS
PROVO AIRPORT  PTCLDY    51  39  63 NE5       29.94R
MOAB/CANYONLAN PTCLDY    72  34  24 W15       29.76R
DELTA          CLEAR     54  36  50 NE7       29.91R
PRICE          CLEAR     56  30  37 NW12      29.92R
ROOSEVELT      CLOUDY    55  34  44 E12       29.94R
VERNAL         CLOUDY    52  38  58 NE7       29.93S

$$

UTZ013>016-019>022-027-200500-

SOUTHERN UTAH

CITY           SKY/WX    TMP DP  RH WIND       PRES   REMARKS
BRYCE CANYON   CLEAR     54  34  46 SW10G24   30.05R
CEDAR CITY     CLEAR     58  36  43 S6        29.93R
MILFORD        CLEAR     61  32  33 NW20      29.90R
ST GEORGE      MOCLDY    76  37  24 SE6       29.80R
HANKSVILLE     CLEAR     73  30  20 W21G30    29.81R
BLANDING         N/A     65  29  26 SW6       29.98R

$$

REGIONAL REPORTS     COLORADO/ARIZONA

CITY           SKY/WX    TMP DP  RH WIND       PRES   REMARKS
CRAIG, CO      CLOUDY    41  37  86 SE6       30.04R
GRAND JUNCTION PTCLDY    67  39  35 W10G21    29.79R
RIFLE, CO      CLOUDY    57  36  45 W12       29.87R
MONTROSE, CO   CLEAR     60  30  32 SE10      29.90R
CORTEZ, CO     CLEAR     67  22  18 SW14      29.95R
PAGE, AZ       CLEAR     78  33  19 W6        29.84R
GRAND CANYON   PTCLDY    55  30  38 SW7       30.07S
KINGMAN, AZ    CLEAR     66  43  43 S5        29.88R
FLAGSTAFF, AZ  PTCLDY    58  32  37 W8        30.12R

$$

REGIONAL REPORTS    NEVADA/IDAHO/WYOMING

CITY           SKY/WX    TMP DP  RH WIND       PRES   REMARKS
LAS VEGAS, NV  CLEAR     83  40  21 SW5       29.73R
ELY, NY        CLEAR     50  21  32 NW6       30.00R
ELKO, NV       CLEAR     46  20  35 CALM      29.96R
POCATELLO, ID  CLEAR     47  33  58 SW14      29.94R
BURLEY, ID     CLEAR     41  34  76 SW3       29.92S
FORT BRIDGER,    N/A     37  31  79 W6        30.02F WCI  33
EVANSTON, WY   CLEAR     39  28  64 W9        30.00S WCI  33
ROCK SPRINGS,  CLOUDY    36  30  79 SW6       30.00R WCI  31
KEMMERER, WY     N/A     32  30  93 W6        30.00S WCI  26

$$




USA.gov is the U.S. government's official web portal to all federal, state and local government web resources and services.